Location: Bluff Heights
(33.7692°N, 118.1592°W)
Time: 01:48:32
(UTC+00:00)

S-56A Canister/Altair - Pass Details

Date: 24 July 2021
Orbit: 632 x 2500 km, 38.9° (Epoch: 18 September)

Event Time Altitude Azimuth Distance (km) Brightness Sun altitude
Rises 08:07:55 0° 291° (WNW) 5,362 12.0 -36.4°
Reaches altitude 10° 08:12:22 10° 282° (WNW) 4,045 11.2 -36.4°
Enters shadow 08:16:10 20° 267° (W) 2,998 10.4 -36.3°
